Home   Weather   Izmir   Past weeks
Flag for Turkey

Past Weather in Izmir, Turkey — Yesterday and Last 2 Weeks

Now
81 °F

Clear.


Feels Like: 82 °F
Forecast: 94 / 70 °F
Wind: 5 mph from Northwest

Location: Izmir / Cigli

Current Time: Jul 19, 2019 at 10:11:21 pm

Latest Report: Jul 19, 2019 at 8:50 pm


Visibility: 10 mi

Pressure: 29.86 "Hg

Humidity: 54%

Dew Point: 63 °F

Location of IzmirLocation

Past Weather in Izmir — Graph

°F

Izmir Temperature Yesterday

Maximum temperature yesterday: 90 °F (at 4:50 pm)
Minimum temperature yesterday: 70 °F (at 5:50 am)
Average temperature yesterday: 80 °F

High & Low Weather Summary for the Past Weeks

 TemperatureHumidityPressure
High95 °F (Jul 5, 1:50 pm)94% (Jul 14, 3:08 pm)29.89 "Hg (Jul 14, 3:08 pm)
Low63 °F (Jul 15, 3:50 am)26% (Jul 6, 1:50 pm)29.56 "Hg (Jul 11, 6:50 am)
Average80 °F53%29.76 "Hg
* Reported Jul 4 8:50 pm — Jul 19 8:50 pm, Izmir. Weather by CustomWeather, © 2019

Note: Actual official high and low records may vary slightly from our data, if they occured in-between our weather recording intervals... More about our weather records

Advertising

Izmir Weather History for the Previous 24 Hours

Scroll right to see more
 ConditionsComfort  
Time TempWeatherWind HumidityBarometerVisibility
8:50 pm
Fri, Jul 19
81 °FClear.5 mph54%29.86 "Hg10 mi
7:50 pm84 °FPassing clouds.8 mph48%29.83 "HgN/A
6:50 pm88 °FPassing clouds.14 mph40%29.83 "HgN/A
5:50 pm90 °FPassing clouds.14 mph41%29.83 "HgN/A
4:50 pm91 °FPassing clouds.16 mph36%29.83 "HgN/A
3:50 pm91 °FPassing clouds.16 mph36%29.83 "HgN/A
2:50 pm91 °FPassing clouds.14 mph38%29.83 "HgN/A
1:50 pm90 °FPassing clouds.15 mph41%29.86 "HgN/A
12:50 pm88 °FPassing clouds.12 mph43%29.86 "HgN/A
11:50 am88 °FPassing clouds.14 mph38%29.86 "HgN/A
10:50 am86 °FPassing clouds.9 mph43%29.86 "HgN/A
9:50 am82 °FSunny.6 mph48%29.86 "Hg10 mi
8:50 am79 °FSunny.2 mph48%29.86 "Hg10 mi
7:50 am75 °FSunny.No wind57%29.86 "Hg10 mi
6:50 am70 °FSunny.5 mph69%29.86 "Hg10 mi
5:50 am64 °FClear.5 mph83%29.86 "Hg10 mi
4:50 am66 °FClear.7 mph73%29.86 "Hg10 mi
3:50 am68 °FClear.No wind64%29.83 "Hg10 mi
1:50 am70 °FClear.No wind57%29.83 "Hg10 mi
12:50 am70 °FClear.2 mph57%29.83 "Hg10 mi
11:50 pm
Thu, Jul 18
73 °FClear.7 mph47%29.83 "Hg10 mi
10:50 pm73 °FClear.14 mph44%29.83 "Hg10 mi
Weather by CustomWeather, © 2019

See weather overview